Location: ????????????
(48.3933°N, 37.5403°E)
Time: 04:01:27
(UTC+00:00)

Daily predictions for brighter satellites

Satellite Brightness Start Highest point End
(mag) Time Altitude Azimuth Time Altitude Azimuth Time Altitude Azimuth
FALCON 9 DEB 3.8 00:01:26 10° WNW 00:04:27 30° SW 00:07:28 10° SSE
IDEFIX/ARIANE 42P 3.1 00:00:24 10° NNE 00:05:35 58° E 00:10:43 10° S
ASTEX 1 3.9 00:01:12 10° SSE 00:06:04 62° E 00:10:57 10° N
Cosmos 2151 3.5 00:08:22 14° SW 00:11:45 44° WNW 00:15:48 10° N
AQUA 4.3 00:07:34 10° N 00:12:10 49° WNW 00:16:24 12° SW
Meteor 1-26 Rocket 4.4 00:07:11 10° NNW 00:12:59 70° W 00:18:56 10° S
DELTA 2 R/B (1) 4.3 00:17:41 10° WSW 00:22:36 33° S 00:27:31 10° ESE
Cosmos 1656 4.2 00:17:01 10° NNW 00:22:44 68° ENE 00:28:23 10° SE
NOSS 2-2 (E) 4.2 00:20:53 10° WSW 00:24:10 38° NW 00:27:57 10° NNE
CBERS-1 4.1 00:20:09 10° NNE 00:25:20 86° WNW 00:30:28 10° SSW
IRS-1D 3.6 00:20:18 10° N 00:25:27 71° WNW 00:30:27 10° SSW
Cosmos 1553 Rocket 4.2 00:19:17 10° NNW 00:25:28 58° W 00:31:31 10° S
Cosmos 2292 Rocket 3.4 00:26:32 11° SW 00:29:06 37° WNW 00:31:56 10° N
USA 281 3.2 00:24:16 10° SSE 00:30:50 74° WSW 00:37:27 10° NNW
S3M 4.0 00:25:24 10° NNW 00:31:33 75° W 00:37:44 10° S
X-37B 1.6 00:30:22 10° W 00:33:07 27° SSW 00:35:51 10° SE
Cosmos 1697 Rocket 4.0 00:28:21 10° NNW 00:33:48 47° NE 00:39:15 10° SE
SL-08 R/B 3.8 00:29:33 10° SSE 00:34:11 67° ENE 00:38:55 10° N
Cosmos 1812 2.7 00:31:05 10° N 00:34:56 90° E 00:38:46 10° S
CZ-2C R/B 4.2 00:30:42 10° NE 00:35:00 28° E 00:39:09 10° SSE
MSX 4.0 00:29:57 10° NNE 00:35:45 76° ESE 00:41:29 10° S
NOSS 2-2 (C) 4.2 00:34:36 10° WSW 00:37:51 36° NW 00:41:31 10° NNE
Cosmos 1782 3.5 00:37:30 10° NNW 00:41:13 37° W 00:44:55 10° SSW
USA 307 3.2 00:39:07 10° WSW 00:43:21 64° NNW 00:47:35 10° ENE
Cosmos 1271 Rocket 2.9 00:40:05 10° NNW 00:43:43 49° W 00:47:21 10° S
NOSS 3-2 (A) 4.1 00:37:01 10° NW 00:44:29 88° SW 00:53:02 10° SE
FALCON 9 DEB 3.0 00:41:37 10° WNW 00:44:39 49° SSW 00:47:41 10° SE
CREW DRAGON DEMO-1 DEB 3.9 00:42:50 10° WNW 00:45:09 36° N 00:47:28 10° ENE
CZ-4C R/B 3.6 00:46:17 10° S 00:49:31 38° W 00:52:48 10° NNW
Helios 1B rocket 4.4 00:47:25 10° NNW 00:50:02 17° WNW 00:52:40 10° W
ADEOS Rocket 4.1 00:47:50 10° SSW 00:54:14 33° W 01:00:10 10° NNW
